Location: Wangen+im+Allg�u
(47.7098°N, 9.8383°E)
Time: 09:34:53
(UTC+01:00)

ISS - Pass Details

Date: 14 November 2017
Orbit: 401 x 407 km, 51.6° (Epoch: 18 November)

Event Time Altitude Azimuth Distance (km) Brightness Sun altitude
Exits shadow 05:45:32 48° 274° (W) 538 -3.7 -16.6°
Maximum altitude 05:46:17 70° 207° (SSW) 430 -3.9 -16.5°
Drops below altitude 10° 05:49:31 10° 124° (ESE) 1,451 0.0 -16.0°
Sets 05:51:36 0° 122° (ESE) 2,307 1.3 -15.6°
